SCP
0 0 0 0 0 0 0 0 0 0 0 0 0 0 0 0 0 0 0 0 0 0 0 0 0 0 0 0 0 0 0 0 0 0 0 0 0 0
0 0 0 0 0 0 0 0 0 0 0 0 0 0 0 0 0 0 0 0 0 0 0 0 0 0 0 0 0 0 0 0 0 0 0 0 0 0
0 0 0 0 0 0 0 0 0 0 0 0 0 0 0 0 0 0 0 0 0 0 0 0 0 0 0 0 0 0 0 0 0 0 0 0 0 0
0 0 0 0 0 0 0 0 0 0 0 0 0 0 0 0 0 0 0 0 0 0 0 0 0 0 0 0 0 0 0 0 0 0 0 0 0 0
0 0 0 0 0 0 0 0 0 0 0 0 0 0 0 0 0 0 0 0 0 0 0 0 0 0 0 0 0 0 0 0 0 0 0 0 0 0
0 0 0 0 0 0 0 0 0 0 0 0 0 0 0 0 0 0 0 0 0 0 0 0 0 0 0 0 0 0 0 0 0 0 0 0 0 0
0 0 0 0 0 0 0 0 0 0 0 0 0 0 0 0 0 0 0 0 0 0 0 0 0 0 0 0 0 0 0 0 0 0 0 0 0 0
0 0 0 0 0 0 0 0 0 0 0 0 0 0 0 0 0 0 0 0 0 0 0 0 0 0 0 0 0 0 0 0 0 0 0 0 0 0
1 1 0 0 0 0 0 0 0 0 0 0 0 0 0 0 0 0 0 0 0 0 0 0 0 0 0 0 0 0 0 0 0 0 0 0 0 0
1 1 1 0 0 0 0 0 0 0 0 0 0 0 0 0 0 0 0 0 0 0 0 0 0 0 0 0 0 0 0 0 0 0 0 0 0 0
0 0 0 0 0 0 0 0 0 0 0 0 0 0 0 0 0 0 0 0 0 0 0 0 0 0 0 0 0 0 0 0 0 0 0 0 0 0
0 0 0 0 0 0 0 0 0 0 0 0 0 0 0 0 0 0 0 0 0 0 0 0 0 0 0 0 0 0 0 0 0 0 0 0 0 0
0 0 0 0 0 0 0 0 0 0 0 0 0 0 0 0 0 0 0 0 0 0 0 0 0 0 0 0 0 0 0 0 0 0 0 0 0 0
0 0 0 0 0 0 0 0 0 0 0 0 0 0 0 0 0 0 0 0 0 0 0 0 0 0 0 0 0 0 0 0 0 0 0 0 0 0
0 0 0 0 0 0 0 0 0 0 0 0 0 0 0 0 0 0 0 0 0 0 0 0 0 0 0 0 0 0 0 0 0 0 0 0 0 0
0 0 0 0 0 0 0 0 0 0 0 0 0 0 0 0 0 0 0 0 0 0 0 0 0 0 0 0 0 0 0 0 0 0 0 0 0 0
0 0 0 0 0 0 0 0 0 0 0 0 0 0 0 0 0 0 0 0 0 0 0 0 0 0 0 0 0 0 0 0 0 0 0 -0 -0 -0
0 0 0 0 0 0 0 0 0 0 0 0 0 0 0 0 0 0 0 0 0 0 0 0 0 0 0 -0 -0 0 0 -0 -0 -0 -0 -0 -0 -0
0 0 0 0 0 0 0 0 0 0 0 0 0 0 0 0 0 0 0 0 0 0 0 0 0 0 -0 -0 -0 -0 -0 -0 -0 -0 -0 -0 -0 -0
0 0 0 0 0 0 0 0 0 0 0 0 0 0 0 0 0 0 0 0 0 0 0 0 0 0 -0 -0 -0 -0 -0 -0 -0 -0 -0 -0 -0 -0
0 0 0 0 0 0 0 0 0 0 0 0 0 0 0 0 0 0 0 0 0 0 0 0 0 -0 -0 -0 -0 -0 -0 -0 -0 -0 -0 -0 -0 -0
0 0 0 0 0 0 0 0 0 0 0 0 0 0 0 0 0 0 0 0 0 0 0 0 0 0 0 -0 -0 -0 -0 -0 -0 -0 -0 -0 -0 -0
0 0 0 0 0 0 0 0 0 0 0 0 0 0 0 0 0 0 0 0 0 0 0 0 0 0 0 0 -0 -0 -0 -0 -0 -0 -0 -0 -0 -0
Wind_Speed
3 3 3 2 3 3 3 4 4 3 3 2 2 1 1 1 1 2 2 3 4 3 3 2 2 2 1 2 2 2 2 2 3 3 4 5 5 6
2 2 2 2 2 2 3 4 4 4 3 1 1 1 1 2 2 2 2 4 5 5 5 4 3 2 2 2 2 1 2 3 3 4 5 5 5 5
3 3 3 2 2 2 2 3 3 3 4 3 2 1 2 3 2 3 3 4 4 7 6 5 5 4 3 3 3 2 2 3 3 4 5 5 5 4
3 3 3 2 2 3 2 3 3 3 4 4 3 3 3 3 3 5 4 3 4 6 7 6 6 5 5 4 4 4 4 3 3 3 3 4 4 4
4 4 3 2 3 2 3 3 3 3 3 4 4 3 3 3 3 4 4 4 5 5 8 8 7 7 6 6 5 5 4 4 3 2 2 2 2 3
4 4 4 4 3 3 3 4 3 4 4 4 4 3 3 3 3 4 4 4 4 4 4 5 7 9 9 8 7 6 6 5 4 4 4 3 3 3
4 4 4 3 3 3 4 3 4 4 4 4 4 3 3 3 4 4 4 4 4 4 4 4 4 5 6 8 9 8 7 6 6 5 5 4 4 4
4 4 4 5 4 4 5 5 5 5 5 5 4 4 4 5 4 4 4 4 4 2 4 4 4 4 4 4 5 7 7 7 7 7 6 6 5 5
4 4 4 3 4 5 5 7 6 6 7 7 6 6 5 4 5 6 5 5 5 3 4 5 4 4 4 2 7 8 8 8 8 8 7 6 6 6
4 4 4 3 3 4 4 4 5 5 6 6 6 6 5 4 5 6 6 6 6 5 5 5 4 4 4 3 6 8 9 9 9 8 8 7 7 7
4 4 4 4 1 3 5 5 5 4 4 4 4 4 4 5 5 5 5 5 5 4 3 4 4 4 4 4 4 8 9 9 9 8 8 8 8 9
4 4 3 3 1 3 5 5 6 5 4 3 4 5 5 5 7 7 6 6 5 4 3 4 4 4 4 3 3 4 5 7 9 9 9 8 8 7
3 3 2 3 3 4 6 5 5 6 5 5 4 4 3 3 4 4 4 5 6 5 3 4 4 4 4 3 3 3 3 3 4 5 8 9 9 8
3 2 0 2 3 5 5 4 5 6 5 4 3 3 3 3 2 3 3 4 5 6 5 5 5 5 5 5 4 4 4 4 4 4 4 7 9 10
3 2 1 3 5 5 5 5 5 5 4 3 3 3 3 3 2 2 3 3 4 5 5 5 6 5 6 6 5 5 4 4 4 4 4 4 4 5
3 2 4 6 6 4 3 4 4 3 4 4 3 3 3 2 3 3 3 3 4 3 3 4 5 6 6 6 6 5 5 4 4 4 4 4 5 5
2 3 3 3 3 3 3 3 3 3 3 3 3 3 3 3 3 2 3 3 4 4 3 2 3 3 5 6 6 5 5 5 4 4 5 5 5 5
4 4 3 3 3 3 3 2 2 2 3 3 4 4 3 3 3 3 3 3 4 3 3 3 3 3 4 3 3 5 5 5 4 4 5 5 6 5
5 4 3 3 3 3 3 3 2 2 2 3 3 4 4 3 3 3 3 3 3 3 3 3 3 4 5 5 3 3 4 4 4 5 4 5 6 5
4 3 3 3 2 2 3 3 2 2 2 2 3 3 3 3 3 3 3 4 4 4 4 3 3 4 5 5 5 4 4 5 5 5 5 5 6 5
3 3 3 2 2 2 2 2 3 2 2 3 2 3 3 3 3 4 3 3 5 4 4 4 2 4 4 4 5 4 3 4 5 4 5 5 5 5
3 3 2 2 2 2 2 2 2 2 2 3 3 3 3 3 4 4 4 4 4 4 4 3 2 3 3 4 5 5 5 3 4 6 5 5 5 5
2 2 2 2 2 2 2 2 3 3 2 2 3 3 3 3 4 4 4 4 4 4 4 3 3 3 3 4 4 5 5 5 4 4 4 6 7 9
Wind_Direction
236 227 246 238 234 242 249 253 262 266 263 214 227 188 237 211 201 243 236 163 190 201 207 215 223 224 228 233 225 221 231 238 238 240 242 244 242 240
253 265 263 258 247 244 249 254 258 264 274 276 271 264 315 264 199 256 249 187 197 196 200 203 207 205 210 209 210 230 244 250 247 247 249 248 247 244
238 234 246 269 268 265 253 253 257 259 261 267 265 241 250 263 265 265 249 239 204 185 196 205 209 207 211 214 216 226 240 252 256 254 251 248 243 238
235 236 239 229 237 266 272 270 268 263 252 263 265 251 240 242 246 255 254 248 244 177 191 204 204 204 209 214 219 225 232 240 250 257 259 253 243 234
234 235 234 228 236 247 259 263 261 254 244 251 255 252 248 242 250 250 247 251 251 195 193 196 201 206 212 215 217 221 224 225 225 230 236 238 231 231
234 237 235 231 233 240 239 248 260 264 248 248 248 246 247 245 254 257 254 240 251 245 232 212 203 205 211 213 214 216 218 219 220 223 221 222 226 232
234 237 235 245 275 269 268 258 253 255 254 249 251 252 249 252 254 260 267 262 251 249 247 236 221 224 212 209 210 211 214 217 217 218 222 225 229 231
236 236 229 219 222 236 267 279 278 261 264 264 256 258 259 260 264 264 267 266 262 245 253 254 248 250 241 229 190 194 207 215 219 221 224 227 229 231
246 246 252 234 228 237 232 233 248 256 262 270 271 272 271 267 265 262 259 267 275 274 265 261 254 253 251 212 171 192 205 215 221 224 226 228 232 234
242 243 251 255 255 269 258 252 249 244 246 249 264 272 279 279 264 263 266 258 256 246 244 260 258 263 259 224 183 196 204 213 220 224 226 226 230 233
240 241 247 246 266 281 259 260 261 254 235 241 274 279 284 275 268 262 255 255 260 253 231 252 262 265 258 247 198 193 204 212 218 223 227 227 229 229
229 224 220 246 232 256 258 261 261 263 263 240 231 239 241 235 229 242 258 261 266 264 239 249 257 262 256 239 225 205 209 208 211 216 220 224 229 241
242 238 213 166 210 241 260 265 273 279 261 251 242 240 241 241 240 237 254 268 271 269 264 259 264 259 264 268 260 245 234 233 224 219 212 212 215 233
262 267 235 162 215 244 252 266 268 269 259 256 255 260 264 265 274 275 268 272 278 280 285 277 272 268 268 271 271 258 245 245 248 248 236 202 209 218
276 339 310 225 230 232 226 235 248 254 260 262 267 273 281 289 283 265 253 253 259 265 269 268 266 264 266 270 269 269 270 263 252 251 251 243 234 229
239 205 204 223 236 248 227 220 240 261 271 267 270 280 285 272 262 263 263 258 264 267 263 267 266 268 265 267 267 269 269 267 256 249 253 255 247 238
269 240 238 233 236 236 237 240 250 252 259 270 275 275 273 273 274 273 267 266 267 270 265 254 258 265 276 280 269 267 267 263 256 249 250 254 251 244
258 244 243 246 252 258 259 252 252 268 276 277 274 272 271 273 278 276 267 269 273 275 275 271 260 263 260 258 272 277 276 274 268 254 255 259 261 253
238 247 252 258 260 264 271 274 274 271 275 275 278 279 277 274 274 274 272 276 278 281 280 274 268 266 271 273 268 257 279 281 277 266 261 267 270 271
242 253 257 260 263 267 273 277 277 275 270 274 277 281 282 281 277 274 268 277 281 280 277 270 265 270 275 284 287 277 246 269 274 273 273 271 271 266
237 249 258 266 274 272 271 278 280 281 291 291 285 280 276 275 276 274 271 265 273 274 277 284 297 269 269 267 269 271 263 237 259 277 286 284 281 274
245 252 258 266 275 283 279 275 279 281 278 278 283 278 279 275 270 273 278 274 273 281 284 285 273 264 265 267 275 281 279 266 231 232 253 268 288 287
248 258 256 254 268 274 279 282 279 278 282 285 286 279 275 274 273 270 270 276 284 287 286 288 287 282 278 274 276 283 286 285 274 250 245 221 227 243